Home   Weather   Barrie   Past weeks
Flag for Canada

Past Weather in Barrie, Ontario, Canada — Yesterday and Last 2 Weeks

Now
52 °F

Passing clouds.


Feels Like: 52 °F
Forecast: 61 / 37 °F
Wind: 2 mph from East

Location: Borden

Current Time: Oct 20, 2019 at 8:35:04 pm

Latest Report: Oct 20, 2019 at 7:00 pm


Visibility: 9 mi

Pressure: 29.93 "Hg

Humidity: 82%

Dew Point: 46 °F

Location of BarrieLocation

Past Weather in Barrie — Graph

°F

Barrie Temperature Yesterday

Maximum temperature yesterday: 57 °F (at 4:00 pm)
Minimum temperature yesterday: 23 °F (at 4:00 am)
Average temperature yesterday: 38 °F

High & Low Weather Summary for the Past Weeks

 TemperatureHumidityPressure
High70 °F (Oct 6, 1:00 pm)100% (Oct 5, 11:00 pm)30.39 "Hg (Oct 5, 11:00 pm)
Low23 °F (Oct 19, 4:00 am)23% (Oct 11, 4:00 pm)29.44 "Hg (Oct 17, 12:02 am)
Average46 °F80%29.99 "Hg
* Reported Oct 5 7:00 pm — Oct 20 7:00 pm, Barrie. Weather by CustomWeather, © 2019

Note: Actual official high and low records may vary slightly from our data, if they occured in-between our weather recording intervals... More about our weather records

Advertising

Barrie Weather History for the Previous 24 Hours

Scroll right to see more
 ConditionsComfort  
Time TempWeatherWind HumidityBarometerVisibility
7:00 pm
Sun, Oct 20
52 °FPassing clouds.2 mph82%29.93 "Hg9 mi
6:00 pm61 °FPassing clouds.5 mph59%29.91 "Hg9 mi
5:00 pm64 °FPassing clouds.8 mph52%29.90 "Hg9 mi
4:00 pm64 °FSunny.7 mph52%29.89 "Hg9 mi
3:00 pm64 °FSunny.7 mph52%29.88 "Hg9 mi
2:00 pm63 °FSunny.7 mph56%29.89 "Hg9 mi
1:00 pm59 °FSunny.5 mph72%29.89 "Hg9 mi
12:00 pm54 °FSunny.5 mph82%29.91 "Hg9 mi
11:12 am48 °FPassing clouds.5 mph100%29.90 "Hg9 mi
10:49 am46 °FLow clouds.6 mph100%29.90 "Hg9 mi
10:39 am46 °FLow clouds.6 mph100%29.89 "Hg7 mi
10:07 am45 °FLow clouds.3 mph100%29.88 "Hg1 mi
9:39 am45 °FLow clouds.5 mph100%29.89 "Hg2 mi
9:16 am45 °FLow clouds.5 mph100%29.89 "Hg1 mi
9:03 am43 °FLow clouds.6 mph100%29.88 "Hg2 mi
8:15 am43 °FDense fog.5 mph100%29.88 "Hg0 mi
7:48 am41 °FDense fog.2 mph100%29.88 "Hg0 mi
7:00 am41 °FDense fog.3 mph100%29.89 "Hg1 mi
6:55 am41 °FDense fog.2 mph100%29.88 "Hg1 mi
6:42 am41 °FLow clouds.No wind100%29.88 "Hg6 mi
6:21 am39 °FLow clouds.No wind100%29.88 "Hg9 mi
6:00 am39 °FLow clouds.No wind100%29.88 "Hg7 mi
5:00 am39 °FLow clouds.No wind93%29.88 "Hg8 mi
4:00 am39 °FLow clouds.No wind100%29.90 "Hg6 mi
3:27 am37 °FLow clouds.2 mph100%29.89 "Hg3 mi
3:00 am36 °FLow clouds.2 mph93%29.90 "Hg1 mi
2:35 am34 °FPassing clouds.2 mph100%29.89 "Hg1 mi
1:57 am37 °FLow clouds.2 mph100%29.89 "Hg6 mi
1:00 am34 °FLow clouds.2 mph100%29.91 "Hg8 mi
12:25 am34 °FPassing clouds.2 mph100%29.91 "Hg7 mi
12:00 am32 °FClear.2 mph100%29.93 "Hg2 mi
11:24 pm
Sat, Oct 19
34 °FClear.2 mph93%29.92 "Hg1 mi
10:51 pm34 °FClear.2 mph100%29.92 "Hg1 mi
10:34 pm37 °FPassing clouds.No wind100%29.92 "Hg9 mi
10:00 pm39 °FClear.7 mph93%29.93 "Hg9 mi
9:00 pm43 °FClear.6 mph87%29.95 "Hg9 mi
8:00 pm45 °FClear.7 mph81%29.96 "Hg9 mi
Weather by CustomWeather, © 2019

See weather overview